N303CO KPBI-KDAB

Flight info

Callsign N303CO
Flight time 1h 1m
Altitude 3500
Route VFR
Aircraft BE58/L-V/N

Departure

Time 2026-04-21 21:09
Airport Palm Beach International Airport (KPBI)

Arrival

Time 2026-04-21 22:10
Airport Daytona Beach International Airport (KDAB)
Time Latitude Longitude Altitude Speed Heading
2026-04-21 21:05 26.67982 -80.09845 22 ft 0 kts 269°
2026-04-21 21:06 26.67982 -80.09879 22 ft 11 kts 275°
2026-04-21 21:06 26.68006 -80.10006 23 ft 20 kts 268°
2026-04-21 21:06 26.68058 -80.10151 23 ft 22 kts 315°
2026-04-21 21:07 26.68065 -80.10284 24 ft 18 kts 271°
2026-04-21 21:07 26.68067 -80.10433 25 ft 21 kts 269°
2026-04-21 21:07 26.68074 -80.10574 22 ft 11 kts 277°
2026-04-21 21:07 26.68077 -80.10600 21 ft 0 kts 287°
2026-04-21 21:08 26.68078 -80.10604 21 ft 6 kts 301°
2026-04-21 21:08 26.68103 -80.10611 21 ft 10 kts 47°
2026-04-21 21:08 26.68110 -80.10352 26 ft 63 kts 93°
2026-04-21 21:08 26.68080 -80.09681 100 ft 101 kts 96°
2026-04-21 21:09 26.67967 -80.08914 502 ft 94 kts 93°
2026-04-21 21:09 26.67890 -80.08159 845 ft 95 kts 91°
2026-04-21 21:09 26.67945 -80.07478 1283 ft 87 kts 54°
2026-04-21 21:09 26.68605 -80.07340 1461 ft 126 kts 348°
2026-04-21 21:10 26.69384 -80.07983 1597 ft 150 kts 326°
2026-04-21 21:10 26.70171 -80.08811 1747 ft 160 kts 325°
2026-04-21 21:10 26.71001 -80.09681 1897 ft 167 kts 326°
2026-04-21 21:10 26.71848 -80.10592 2043 ft 171 kts 324°
2026-04-21 21:11 26.72680 -80.11557 2181 ft 173 kts 322°
2026-04-21 21:11 26.73583 -80.12407 2324 ft 166 kts 340°
2026-04-21 21:11 26.74635 -80.12886 2451 ft 162 kts 350°
2026-04-21 21:11 26.75697 -80.13285 2575 ft 160 kts 349°
2026-04-21 21:12 26.76746 -80.13682 2701 ft 159 kts 349°
2026-04-21 21:12 26.77790 -80.14079 2813 ft 160 kts 351°
2026-04-21 21:12 26.78842 -80.14478 2937 ft 160 kts 350°
2026-04-21 21:12 26.79897 -80.14881 3062 ft 160 kts 349°
2026-04-21 21:13 26.80947 -80.15281 3188 ft 158 kts 351°
2026-04-21 21:13 26.81987 -80.15679 3311 ft 157 kts 351°
2026-04-21 21:13 26.83017 -80.16073 3425 ft 156 kts 351°
2026-04-21 21:13 26.84049 -80.16466 3501 ft 159 kts 350°
2026-04-21 21:14 26.85118 -80.16870 3504 ft 164 kts 349°
2026-04-21 21:14 26.86213 -80.17288 3514 ft 168 kts 349°
2026-04-21 21:14 26.87302 -80.17706 3518 ft 165 kts 350°
2026-04-21 21:14 26.88377 -80.18120 3509 ft 161 kts 349°
2026-04-21 21:15 26.89424 -80.18520 3500 ft 158 kts 349°
2026-04-21 21:15 26.90456 -80.18916 3498 ft 155 kts 350°
2026-04-21 21:15 26.91477 -80.19305 3498 ft 154 kts 349°
2026-04-21 21:15 26.92493 -80.19693 3497 ft 154 kts 350°
2026-04-21 21:16 26.93506 -80.20080 3500 ft 153 kts 349°
2026-04-21 21:16 26.94514 -80.20466 3496 ft 153 kts 349°
2026-04-21 21:16 26.95532 -80.20855 3492 ft 154 kts 350°
2026-04-21 21:16 26.96548 -80.21244 3498 ft 154 kts 350°
2026-04-21 21:17 26.97562 -80.21632 3495 ft 154 kts 350°
2026-04-21 21:17 26.98575 -80.22020 3494 ft 153 kts 349°
2026-04-21 21:17 26.99581 -80.22406 3499 ft 153 kts 349°
2026-04-21 21:17 27.00589 -80.22791 3492 ft 153 kts 349°
2026-04-21 21:18 27.01588 -80.23173 3494 ft 154 kts 351°
2026-04-21 21:18 27.02599 -80.23561 3495 ft 153 kts 350°
2026-04-21 21:18 27.03623 -80.23953 3495 ft 153 kts 349°
2026-04-21 21:18 27.04634 -80.24341 3492 ft 154 kts 351°
2026-04-21 21:19 27.05633 -80.24724 3494 ft 153 kts 350°
2026-04-21 21:19 27.06634 -80.25109 3498 ft 151 kts 351°
2026-04-21 21:19 27.07623 -80.25488 3494 ft 150 kts 351°
2026-04-21 21:19 27.08609 -80.25866 3492 ft 150 kts 351°
2026-04-21 21:20 27.09606 -80.26246 3495 ft 152 kts 351°
2026-04-21 21:20 27.10605 -80.26630 3505 ft 152 kts 351°
2026-04-21 21:20 27.11597 -80.27012 3500 ft 151 kts 350°
2026-04-21 21:20 27.12597 -80.27396 3505 ft 151 kts 350°
2026-04-21 21:21 27.13581 -80.27774 3500 ft 151 kts 350°
2026-04-21 21:21 27.14586 -80.28159 3496 ft 152 kts 349°
2026-04-21 21:21 27.15581 -80.28540 3489 ft 153 kts 350°
2026-04-21 21:21 27.16605 -80.28934 3494 ft 155 kts 349°
2026-04-21 21:22 27.17630 -80.29328 3497 ft 156 kts 348°
2026-04-21 21:22 27.18655 -80.29722 3498 ft 155 kts 349°
2026-04-21 21:22 27.19656 -80.30108 3501 ft 154 kts 349°
2026-04-21 21:22 27.20670 -80.30497 3497 ft 154 kts 349°
2026-04-21 21:23 27.21689 -80.30889 3493 ft 154 kts 349°
2026-04-21 21:23 27.22704 -80.31279 3495 ft 154 kts 348°
2026-04-21 21:23 27.23720 -80.31669 3499 ft 155 kts 349°
2026-04-21 21:23 27.24741 -80.32062 3494 ft 154 kts 349°
2026-04-21 21:24 27.25755 -80.32453 3492 ft 154 kts 349°
2026-04-21 21:24 27.26766 -80.32842 3496 ft 153 kts 349°
2026-04-21 21:24 27.27772 -80.33228 3494 ft 153 kts 349°
2026-04-21 21:24 27.28778 -80.33617 3495 ft 153 kts 349°
2026-04-21 21:25 27.29787 -80.34004 3493 ft 153 kts 349°
2026-04-21 21:25 27.30781 -80.34388 3496 ft 153 kts 350°
2026-04-21 21:25 27.31787 -80.34775 3497 ft 153 kts 348°
2026-04-21 21:25 27.32789 -80.35162 3497 ft 151 kts 349°
2026-04-21 21:26 27.33775 -80.35543 3498 ft 148 kts 350°
2026-04-21 21:26 27.34745 -80.35917 3497 ft 146 kts 350°
2026-04-21 21:26 27.35705 -80.36295 3498 ft 146 kts 348°
2026-04-21 21:26 27.36676 -80.36710 3504 ft 155 kts 346°
2026-04-21 21:27 27.37703 -80.37158 3511 ft 161 kts 346°
2026-04-21 21:27 27.38756 -80.37622 3519 ft 164 kts 347°
2026-04-21 21:27 27.39820 -80.38093 3517 ft 165 kts 346°
2026-04-21 21:27 27.40892 -80.38567 3519 ft 167 kts 346°
2026-04-21 21:28 27.41981 -80.39046 3517 ft 168 kts 347°
2026-04-21 21:28 27.42705 -80.39368 3519 ft 168 kts 347°
2026-04-21 21:28 27.44876 -80.40326 3519 ft 168 kts 347°
2026-04-21 21:29 27.45957 -80.40803 3516 ft 169 kts 346°
2026-04-21 21:29 27.47059 -80.41290 3515 ft 170 kts 347°
2026-04-21 21:29 27.48160 -80.41777 3516 ft 170 kts 346°
2026-04-21 21:29 27.49260 -80.42264 3518 ft 170 kts 346°
2026-04-21 21:30 27.50364 -80.42751 3517 ft 170 kts 346°
2026-04-21 21:30 27.51465 -80.43238 3515 ft 169 kts 346°
2026-04-21 21:30 27.52562 -80.43723 3518 ft 170 kts 346°
2026-04-21 21:30 27.53664 -80.44209 3519 ft 170 kts 347°
2026-04-21 21:31 27.54774 -80.44700 3517 ft 171 kts 346°
2026-04-21 21:31 27.55883 -80.45192 3517 ft 171 kts 346°
2026-04-21 21:31 27.56982 -80.45681 3527 ft 172 kts 346°
2026-04-21 21:31 27.58095 -80.46172 3526 ft 172 kts 346°
2026-04-21 21:32 27.59212 -80.46664 3524 ft 172 kts 346°
2026-04-21 21:32 27.60332 -80.47163 3524 ft 173 kts 346°
2026-04-21 21:32 27.61446 -80.47656 3525 ft 172 kts 346°
2026-04-21 21:32 27.62554 -80.48148 3524 ft 171 kts 346°
2026-04-21 21:33 27.63663 -80.48637 3527 ft 171 kts 347°
2026-04-21 21:33 27.64770 -80.49130 3527 ft 171 kts 346°
2026-04-21 21:33 27.65883 -80.49622 3527 ft 172 kts 346°
2026-04-21 21:33 27.66995 -80.50115 3525 ft 172 kts 346°
2026-04-21 21:34 27.68109 -80.50610 3524 ft 172 kts 346°
2026-04-21 21:34 27.69227 -80.51107 3524 ft 173 kts 345°
2026-04-21 21:34 27.70339 -80.51597 3523 ft 173 kts 346°
2026-04-21 21:34 27.71454 -80.52095 3524 ft 171 kts 346°
2026-04-21 21:35 27.72565 -80.52587 3526 ft 173 kts 346°
2026-04-21 21:35 27.73697 -80.53089 3524 ft 174 kts 346°
2026-04-21 21:35 27.74822 -80.53588 3520 ft 174 kts 346°
2026-04-21 21:35 27.75948 -80.54090 3518 ft 174 kts 345°
2026-04-21 21:36 27.77079 -80.54593 3520 ft 174 kts 346°
2026-04-21 21:36 27.78206 -80.55094 3511 ft 174 kts 346°
2026-04-21 21:36 27.79317 -80.55588 3509 ft 173 kts 346°
2026-04-21 21:36 27.80432 -80.56085 3509 ft 172 kts 346°
2026-04-21 21:37 27.81542 -80.56578 3510 ft 171 kts 346°
2026-04-21 21:37 27.82654 -80.57073 3509 ft 173 kts 347°
2026-04-21 21:37 27.83776 -80.57570 3509 ft 173 kts 346°
2026-04-21 21:37 27.84895 -80.58069 3513 ft 173 kts 346°
2026-04-21 21:38 27.86016 -80.58568 3512 ft 173 kts 346°
2026-04-21 21:38 27.87137 -80.59067 3517 ft 173 kts 346°
2026-04-21 21:38 27.88257 -80.59566 3513 ft 172 kts 346°
2026-04-21 21:38 27.89367 -80.60061 3513 ft 171 kts 346°
2026-04-21 21:39 27.90477 -80.60556 3515 ft 172 kts 345°
2026-04-21 21:39 27.91591 -80.61051 3514 ft 173 kts 346°
2026-04-21 21:39 27.92717 -80.61552 3515 ft 174 kts 346°
2026-04-21 21:39 27.93841 -80.62055 3511 ft 174 kts 346°
2026-04-21 21:40 27.94962 -80.62555 3513 ft 173 kts 345°
2026-04-21 21:40 27.96091 -80.63057 3511 ft 174 kts 346°
2026-04-21 21:40 27.97221 -80.63561 3514 ft 175 kts 346°
2026-04-21 21:40 27.98336 -80.64061 3507 ft 174 kts 346°
2026-04-21 21:41 27.99465 -80.64564 3510 ft 174 kts 346°
2026-04-21 21:41 28.00584 -80.65064 3512 ft 173 kts 345°
2026-04-21 21:41 28.01705 -80.65563 3512 ft 174 kts 346°
2026-04-21 21:41 28.02830 -80.66067 3508 ft 174 kts 347°
2026-04-21 21:42 28.03964 -80.66573 3514 ft 175 kts 346°
2026-04-21 21:42 28.05102 -80.67081 3513 ft 175 kts 346°
2026-04-21 21:42 28.06236 -80.67588 3502 ft 175 kts 346°
2026-04-21 21:42 28.07370 -80.68095 3499 ft 174 kts 346°
2026-04-21 21:43 28.08495 -80.68600 3502 ft 174 kts 346°
2026-04-21 21:43 28.09610 -80.69098 3503 ft 174 kts 345°
2026-04-21 21:43 28.10736 -80.69601 3504 ft 174 kts 345°
2026-04-21 21:43 28.11864 -80.70105 3503 ft 174 kts 345°
2026-04-21 21:44 28.12989 -80.70610 3504 ft 174 kts 346°
2026-04-21 21:44 28.14120 -80.71115 3501 ft 174 kts 346°
2026-04-21 21:44 28.15248 -80.71621 3505 ft 174 kts 345°
2026-04-21 21:44 28.16374 -80.72124 3504 ft 174 kts 345°
2026-04-21 21:45 28.17500 -80.72630 3501 ft 174 kts 345°
2026-04-21 21:45 28.18623 -80.73133 3503 ft 173 kts 345°
2026-04-21 21:45 28.19747 -80.73637 3504 ft 174 kts 345°
2026-04-21 21:45 28.20870 -80.74139 3502 ft 173 kts 345°
2026-04-21 21:46 28.21992 -80.74643 3505 ft 173 kts 345°
2026-04-21 21:46 28.23110 -80.75145 3511 ft 173 kts 346°
2026-04-21 21:46 28.24229 -80.75646 3510 ft 173 kts 346°
2026-04-21 21:46 28.25346 -80.76148 3517 ft 172 kts 345°
2026-04-21 21:47 28.26456 -80.76646 3519 ft 171 kts 345°
2026-04-21 21:47 28.27563 -80.77142 3517 ft 171 kts 346°
2026-04-21 21:47 28.28665 -80.77638 3518 ft 171 kts 345°
2026-04-21 21:47 28.29754 -80.78128 3514 ft 170 kts 345°
2026-04-21 21:48 28.30857 -80.78622 3518 ft 171 kts 345°
2026-04-21 21:48 28.31963 -80.79118 3519 ft 171 kts 346°
2026-04-21 21:48 28.33085 -80.79623 3518 ft 171 kts 345°
2026-04-21 21:48 28.34194 -80.80122 3520 ft 172 kts 345°
2026-04-21 21:49 28.35295 -80.80617 3520 ft 172 kts 345°
2026-04-21 21:49 28.36412 -80.81118 3522 ft 173 kts 344°
2026-04-21 21:49 28.37533 -80.81623 3525 ft 174 kts 345°
2026-04-21 21:49 28.38660 -80.82130 3520 ft 174 kts 345°
2026-04-21 21:50 28.39784 -80.82637 3522 ft 173 kts 344°
2026-04-21 21:50 28.40909 -80.83142 3525 ft 174 kts 345°
2026-04-21 21:50 28.42034 -80.83649 3529 ft 173 kts 345°
2026-04-21 21:50 28.43152 -80.84153 3525 ft 173 kts 345°
2026-04-21 21:51 28.44265 -80.84653 3526 ft 174 kts 344°
2026-04-21 21:51 28.45390 -80.85160 3527 ft 173 kts 344°
2026-04-21 21:51 28.46508 -80.85665 3526 ft 173 kts 345°
2026-04-21 21:51 28.47627 -80.86169 3530 ft 173 kts 345°
2026-04-21 21:52 28.48749 -80.86674 3530 ft 174 kts 345°
2026-04-21 21:52 28.49867 -80.87179 3529 ft 173 kts 345°
2026-04-21 21:52 28.50981 -80.87682 3531 ft 171 kts 345°
2026-04-21 21:52 28.52093 -80.88183 3527 ft 173 kts 346°
2026-04-21 21:53 28.53213 -80.88688 3529 ft 174 kts 345°
2026-04-21 21:53 28.54338 -80.89196 3535 ft 174 kts 345°
2026-04-21 21:53 28.55460 -80.89702 3529 ft 173 kts 345°
2026-04-21 21:53 28.56578 -80.90208 3530 ft 173 kts 345°
2026-04-21 21:54 28.57702 -80.90714 3532 ft 175 kts 345°
2026-04-21 21:54 28.58837 -80.91226 3504 ft 176 kts 345°
2026-04-21 21:54 28.59972 -80.91741 3502 ft 176 kts 345°
2026-04-21 21:54 28.61110 -80.92255 3502 ft 176 kts 345°
2026-04-21 21:55 28.62247 -80.92768 3504 ft 176 kts 346°
2026-04-21 21:55 28.63382 -80.93282 3500 ft 176 kts 345°
2026-04-21 21:55 28.64519 -80.93797 3498 ft 176 kts 345°
2026-04-21 21:55 28.65658 -80.94311 3489 ft 176 kts 344°
2026-04-21 21:56 28.66778 -80.94818 3488 ft 176 kts 345°
2026-04-21 21:56 28.67911 -80.95332 3487 ft 175 kts 345°
2026-04-21 21:56 28.69053 -80.95848 3487 ft 177 kts 345°
2026-04-21 21:56 28.70204 -80.96368 3486 ft 178 kts 345°
2026-04-21 21:57 28.71356 -80.96891 3477 ft 178 kts 345°
2026-04-21 21:57 28.72504 -80.97411 3480 ft 177 kts 345°
2026-04-21 21:57 28.73649 -80.97930 3477 ft 178 kts 343°
2026-04-21 21:57 28.74802 -80.98453 3479 ft 178 kts 344°
2026-04-21 21:58 28.75954 -80.98975 3480 ft 178 kts 344°
2026-04-21 21:58 28.77102 -80.99495 3478 ft 177 kts 344°
2026-04-21 21:58 28.78248 -81.00015 3477 ft 177 kts 344°
2026-04-21 21:58 28.79394 -81.00536 3477 ft 177 kts 344°
2026-04-21 21:59 28.80529 -81.01051 3475 ft 175 kts 344°
2026-04-21 21:59 28.81660 -81.01565 3473 ft 175 kts 345°
2026-04-21 21:59 28.82780 -81.02072 3476 ft 175 kts 345°
2026-04-21 21:59 28.83927 -81.02593 3483 ft 176 kts 344°
2026-04-21 22:00 28.85066 -81.03110 3483 ft 176 kts 345°
2026-04-21 22:00 28.86203 -81.03627 3484 ft 176 kts 345°
2026-04-21 22:00 28.87333 -81.04140 3484 ft 177 kts 344°
2026-04-21 22:00 28.88476 -81.04660 3484 ft 177 kts 344°
2026-04-21 22:01 28.89619 -81.05179 3490 ft 177 kts 344°
2026-04-21 22:01 28.90765 -81.05700 3491 ft 177 kts 345°
2026-04-21 22:01 28.91908 -81.06221 3486 ft 176 kts 345°
2026-04-21 22:01 28.93025 -81.06731 3433 ft 164 kts 345°
2026-04-21 22:02 28.94025 -81.07191 3332 ft 147 kts 344°
2026-04-21 22:02 28.94946 -81.07611 3217 ft 139 kts 346°
2026-04-21 22:02 28.95842 -81.08019 3115 ft 139 kts 346°
2026-04-21 22:02 28.96742 -81.08427 3030 ft 139 kts 345°
2026-04-21 22:03 28.97639 -81.08835 2949 ft 138 kts 345°
2026-04-21 22:03 28.98527 -81.09237 2875 ft 140 kts 345°
2026-04-21 22:03 28.99434 -81.09650 2801 ft 141 kts 346°
2026-04-21 22:03 29.00354 -81.10069 2732 ft 143 kts 346°
2026-04-21 22:04 29.01268 -81.10487 2665 ft 140 kts 345°
2026-04-21 22:04 29.02182 -81.10901 2584 ft 141 kts 345°
2026-04-21 22:04 29.03093 -81.11319 2509 ft 141 kts 345°
2026-04-21 22:04 29.04000 -81.11731 2430 ft 139 kts 345°
2026-04-21 22:05 29.04894 -81.12139 2354 ft 138 kts 346°
2026-04-21 22:05 29.05781 -81.12545 2277 ft 137 kts 345°
2026-04-21 22:05 29.06669 -81.12950 2200 ft 137 kts 346°
2026-04-21 22:05 29.07540 -81.13347 2111 ft 138 kts 344°
2026-04-21 22:06 29.08440 -81.13756 1990 ft 141 kts 346°
2026-04-21 22:06 29.09350 -81.14170 1861 ft 140 kts 347°
2026-04-21 22:06 29.10249 -81.14583 1731 ft 137 kts 345°
2026-04-21 22:06 29.11133 -81.14988 1613 ft 137 kts 346°
2026-04-21 22:07 29.12017 -81.15390 1474 ft 137 kts 344°
2026-04-21 22:07 29.12915 -81.15620 1355 ft 128 kts 10°
2026-04-21 22:07 29.13742 -81.15373 1246 ft 120 kts 34°
2026-04-21 22:07 29.14371 -81.14777 1121 ft 117 kts 57°
2026-04-21 22:08 29.14737 -81.13983 994 ft 112 kts 69°
2026-04-21 22:08 29.15069 -81.13187 851 ft 110 kts 68°
2026-04-21 22:08 29.15383 -81.12420 724 ft 103 kts 67°
2026-04-21 22:08 29.15676 -81.11699 602 ft 97 kts 72°
2026-04-21 22:09 29.15975 -81.10957 604 ft 113 kts 69°
2026-04-21 22:09 29.16316 -81.10110 607 ft 118 kts 65°
2026-04-21 22:09 29.16678 -81.09272 610 ft 121 kts 66°
2026-04-21 22:09 29.17023 -81.08364 376 ft 123 kts 66°
2026-04-21 22:10 29.17359 -81.07526 50 ft 106 kts 64°
2026-04-21 22:10 29.17601 -81.06883 34 ft 62 kts 74°
2026-04-21 22:10 29.17707 -81.06828 33 ft 27 kts 321°
2026-04-21 22:10 29.17828 -81.06737 32 ft 27 kts 65°
2026-04-21 22:11 29.17914 -81.06521 35 ft 33 kts 65°
2026-04-21 22:11 29.18015 -81.06276 38 ft 33 kts 66°
2026-04-21 22:11 29.18123 -81.06175 36 ft 21 kts 333°
2026-04-21 22:11 29.18264 -81.06196 38 ft 19 kts 14°
2026-04-21 22:12 29.18383 -81.06172 38 ft 15 kts 18°
2026-04-21 22:12 29.18393 -81.06159 37 ft 0 kts 122°